Powrót do katalogu

EUTE 25C

EUTE W5

AktywnyŁącznośćGEO
NORAD 27554·PAYLOAD·🇪🇺 EU

Wystrzelony Nov 20, 2002 z Cape Canaveral Space Force Station

Loading…

TLE

ŚwieżeSource: Space-Track

Epoka: Sep 14, 2026, 13:53 UTC

1 27554U 02051A   26257.57874103  .00000102  00000-0  00000-0 0  9991
2 27554   9.1869  58.8754 0009544 336.9926 184.1811  1.00284954 49690

Śledź EUTE 25C w czasie rzeczywistym z AllMySat

Download on the App Store